This is the latest recevied weather packets stored in our database for station/object KU9TRY. If no packets are shown the sender has not sent any weather packets the latest 1 day(s).
| Time | Temp. | Humidity | Pressure | Rain* | Wind** | Luminosity | Snow |
|---|---|---|---|---|---|---|---|
| 1778074276 | 16.67° C | 94% | 1012.4 hPa | 1.27 mm | - | 23 W/m² | - |
| 1778073974 | 17.22° C | 94% | 1012.3 hPa | 1.78 mm | - | 26 W/m² | - |
| 1778073064 | 18.33° C | 97% | 1011.6 hPa | 0 mm | - | 9 W/m² | - |
| 1778071552 | 18.33° C | 97% | 1011.2 hPa | 0 mm | - | 15 W/m² | - |
| 1778070947 | 18.33° C | 97% | 1010.9 hPa | 0 mm | - | 8 W/m² | - |
| 1778070040 | 18.33° C | 96% | 1010.6 hPa | 0 mm | - | 24 W/m² | - |
| 1778069737 | 18.33° C | 96% | 1010.4 hPa | 0 mm | - | 19 W/m² | - |
| 1778069433 | 18.33° C | 96% | 1010.1 hPa | 0 mm | - | 19 W/m² | - |
| 1778068526 | 18.33° C | 96% | 1009.6 hPa | 0 mm | - | 8 W/m² | - |
| 1778067620 | 18.89° C | 95% | 1009.7 hPa | 0 mm | - | 6 W/m² | - |
| 1778066711 | 18.33° C | 95% | 1009.4 hPa | 0 mm | - | 5 W/m² | - |
| 1778065803 | 18.33° C | 96% | 1009.8 hPa | 4.32 mm | - | 2 W/m² | - |
| 1778065501 | 18.33° C | 96% | 1009.9 hPa | 7.87 mm | - | 1 W/m² | - |
| 1778063684 | 18.33° C | 95% | 1009.7 hPa | 0 mm | - | 0 W/m² | - |
| 1778063079 | 18.33° C | 94% | 1009.2 hPa | 0 mm | - | 0 W/m² | - |
| 1778062776 | 18.89° C | 94% | 1009.5 hPa | 0 mm | - | 0 W/m² | - |
| 1778062472 | 18.89° C | 94% | 1009.3 hPa | 0 mm | - | 0 W/m² | - |
| 1778061264 | 18.89° C | 91% | 1009.3 hPa | 4.83 mm | - | 0 W/m² | - |
| 1778059751 | 20° C | 84% | 1008.6 hPa | 1.78 mm | - | 0 W/m² | - |
| 1778059449 | 20.56° C | 80% | 1008.5 hPa | 0 mm | - | 0 W/m² | - |
| 1778059145 | 21.11° C | 78% | 1008.2 hPa | 0 mm | - | 0 W/m² | - |
| 1778058540 | 22.22° C | 69% | 1008.4 hPa | 0 mm | - | 0 W/m² | - |
| 1778057934 | 21.67° C | 69% | 1007.9 hPa | 0 mm | - | 0 W/m² | - |
| 1778057327 | 22.22° C | 66% | 1007.9 hPa | 0 mm | - | 0 W/m² | - |
| 1778057024 | 22.22° C | 65% | 1007.6 hPa | 0 mm | - | 0 W/m² | - |
* Rain latest hour (hover to see other rain measurements)
** Current wind speed in m/s (hover to see current wind gust speed)